Theta_e
308 307 307 306 307 308 310 309 307 306 305 305 304 304 303 303 302 303 309 311 311 310 308 315 314 314 314 317 319 320 324 326 326 328 329 329 329 328 328 327 327 327 327 328 327
311 309 306 306 307 307 306 305 305 306 306 306 305 305 304 303 303 311 312 309 308 307 310 315 314 314 316 318 319 320 321 322 323 324 324 324 326 326 327 326 325 325 325 325 325
311 311 310 307 306 308 308 308 308 306 305 305 306 305 304 302 316 319 315 310 306 307 315 316 315 315 316 318 320 320 321 321 322 323 322 323 323 322 323 324 324 324 324 324 323
312 311 311 310 308 307 309 309 309 309 308 305 304 304 303 310 324 323 312 308 306 307 317 316 316 316 318 319 319 321 321 321 321 322 321 322 321 322 321 321 321 321 321 321 322
312 312 311 310 311 309 307 311 309 312 311 308 303 303 303 317 318 315 312 310 308 314 316 315 316 317 319 320 319 321 321 321 320 320 319 319 320 320 320 320 320 320 320 320 320
311 311 310 310 310 311 309 309 312 313 313 313 305 302 310 316 314 314 315 311 313 314 315 315 316 317 318 319 320 320 319 320 319 319 319 319 319 319 319 319 319 319 320 320 320
309 309 309 308 308 309 312 309 311 312 313 313 310 302 314 313 313 319 318 319 318 317 315 315 316 316 317 319 318 318 319 319 319 319 319 319 320 320 319 319 319 319 319 320 320
305 306 306 305 306 307 311 310 309 311 313 314 312 311 316 311 310 321 319 314 314 314 317 317 317 316 318 319 318 319 319 320 321 320 319 319 320 321 320 319 319 319 319 319 319
302 303 305 306 305 306 311 310 309 311 315 314 314 316 318 312 309 319 318 314 313 317 318 317 318 318 318 320 320 320 320 321 320 321 320 319 319 320 319 319 320 320 320 320 319
304 307 308 309 309 307 310 309 310 314 315 315 316 318 319 316 311 315 319 316 316 317 317 317 318 320 320 320 320 320 321 320 320 320 319 319 320 321 320 320 320 320 320 319 319
308 309 310 310 310 308 309 311 321 320 317 320 321 319 317 316 313 315 317 316 316 317 320 318 320 320 319 319 320 320 319 320 320 320 320 321 321 321 321 321 321 321 321 321 321
310 310 310 310 312 311 310 315 318 317 318 319 319 318 318 318 315 316 317 316 317 320 320 321 320 320 320 320 319 319 319 319 320 320 321 321 321 322 322 321 321 321 321 320 320
311 311 311 311 311 311 316 315 316 318 320 319 318 318 318 317 318 317 317 317 319 320 320 320 321 320 319 319 319 320 320 320 320 321 321 321 321 321 322 321 321 321 320 320 320
311 311 313 312 313 316 316 315 315 317 324 321 319 319 318 317 319 319 316 318 320 320 320 320 320 320 318 319 320 320 320 319 319 320 320 322 323 324 324 324 323 323 322 321 322
312 313 313 312 314 316 316 315 316 319 331 323 321 318 318 318 319 319 318 317 319 319 318 319 318 318 319 319 319 318 319 320 320 321 322 322 323 324 324 325 325 323 323 322 321
311 313 312 315 313 316 316 315 318 325 327 323 321 320 319 318 318 319 318 317 317 318 319 319 319 319 319 319 319 319 320 320 321 322 323 324 325 325 325 325 325 324 322 321 319
311 313 311 314 317 313 314 317 326 325 322 322 321 321 320 319 319 319 320 320 318 318 318 318 319 320 319 319 320 319 321 322 324 325 326 326 326 326 325 324 323 323 321 319 318
311 313 314 314 314 314 317 322 326 321 322 321 320 321 321 320 320 320 319 320 319 320 320 321 322 320 320 320 320 321 322 324 328 327 326 325 327 326 325 323 322 321 319 318 318
312 317 315 315 313 316 321 325 323 323 321 320 321 321 323 322 320 320 321 320 319 319 320 320 322 321 320 320 321 321 322 322 324 325 327 325 325 325 325 324 321 318 317 318 317
313 318 317 316 313 318 321 322 321 320 320 320 322 322 322 322 322 321 321 320 320 319 318 320 322 321 321 320 320 320 321 322 325 329 328 325 326 325 323 322 321 319 317 316 315
316 320 318 316 315 319 324 324 322 319 319 321 322 321 321 321 321 321 321 320 319 319 319 319 320 323 322 322 321 321 322 321 322 323 328 327 324 323 321 321 320 319 317 315 316
318 323 318 318 323 322 324 323 316 319 319 320 320 320 320 319 319 320 320 320 317 317 318 318 319 323 321 320 321 321 320 320 328 328 326 330 328 323 322 320 317 316 316 316 316
316 317 317 317 325 324 322 320 319 320 320 319 319 319 319 320 321 319 319 318 317 317 319 319 321 324 322 322 320 320 320 319 320 321 323 327 324 321 319 320 318 317 317 316 315
315 320 318 317 318 321 320 320 319 317 316 317 318 318 319 319 318 320 319 317 316 316 314 314 319 322 323 324 322 322 320 319 320 325 323 323 321 321 321 321 318 316 316 315 315
314 319 316 320 319 318 317 318 318 317 316 316 317 316 317 318 317 318 317 317 316 315 316 315 319 318 317 318 318 318 317 318 318 318 320 319 319 319 318 317 316 315 315 316 316
313 314 314 315 314 316 313 317 316 315 315 316 316 315 315 315 315 317 315 315 317 315 315 316 319 318 318 317 317 317 316 316 316 316 317 316 316 316 315 314 315 317 317 316 316
311 311 312 312 314 315 316 315 314 312 313 312 313 314 313 313 312 313 312 313 313 314 315 316 316 319 321 317 317 317 315 315 315 315 314 314 316 317 317 317 317 316 316 314 313
Wind_Speed
24 23 20 17 16 16 12 10 8 9 10 9 10 10 12 9 8 10 13 11 18 13 11 8 13 16 15 16 16 12 13 17 22 24 16 8 9 18 8 9 11 12 10 9 6
25 23 21 19 16 15 14 12 10 9 8 9 9 9 10 7 10 17 15 18 19 18 10 14 16 18 21 19 14 13 12 20 19 15 13 15 19 19 9 15 17 18 15 14 12
26 26 23 20 17 14 12 12 11 10 8 8 8 8 6 5 10 4 12 14 16 16 13 13 13 19 21 18 23 20 17 16 17 11 11 16 18 12 13 17 20 18 18 13 14
23 25 27 23 19 15 13 10 10 9 9 7 6 6 4 1 2 1 5 11 14 19 11 14 16 20 17 17 19 17 19 23 17 9 12 15 17 18 17 19 17 14 14 17 16
21 24 25 26 24 18 14 12 9 8 8 8 5 3 2 7 6 2 5 8 16 14 15 15 18 19 16 16 17 18 17 17 18 16 17 17 17 16 19 15 12 14 14 14 16
22 23 25 25 23 23 16 11 9 8 9 9 7 3 3 13 1 5 8 9 13 12 13 15 12 17 11 14 16 13 20 19 15 17 18 16 17 18 18 11 14 14 14 15 15
24 25 26 26 27 22 21 13 10 9 9 8 6 5 10 7 5 8 10 10 11 12 12 14 11 12 11 11 12 17 13 14 17 17 15 13 17 19 22 16 15 14 14 13 13
23 25 26 26 27 26 24 15 11 11 10 6 5 3 8 6 7 12 11 8 12 10 9 9 10 15 11 6 6 15 15 15 18 19 17 9 16 10 5 6 13 14 13 13 14
23 24 26 27 27 27 27 12 8 10 9 3 2 6 10 7 12 14 13 12 12 10 7 7 10 14 12 11 13 13 14 19 16 10 11 13 13 13 5 11 15 15 15 16 16
25 26 27 28 28 25 24 7 5 7 5 2 7 7 10 11 12 16 15 12 13 11 11 11 10 12 12 13 14 13 17 15 13 10 10 15 17 15 12 14 15 16 15 16 16
27 28 29 27 26 22 17 2 2 0 9 12 3 8 3 4 12 15 16 13 16 15 14 16 13 15 17 17 18 16 13 13 8 9 9 13 16 16 16 15 19 19 19 18 16
25 28 29 29 23 18 8 7 7 3 9 15 16 15 7 6 12 17 18 16 17 16 16 13 15 16 14 11 10 13 14 16 15 12 12 16 19 16 17 17 22 20 21 18 16
28 34 37 28 18 12 5 12 6 7 8 7 4 10 14 13 13 20 22 21 15 17 17 18 12 7 12 13 14 15 16 16 15 12 11 16 21 21 21 28 23 17 17 17 13
32 36 29 17 3 3 7 2 4 6 6 11 9 5 9 14 11 14 20 22 13 15 17 15 16 14 11 16 14 16 15 15 15 14 14 14 14 15 12 12 16 18 15 16 10
33 29 23 10 6 2 1 1 2 3 4 10 8 7 9 14 4 17 16 22 17 14 10 15 15 15 19 18 13 15 12 11 12 16 17 19 13 15 14 17 14 9 19 5 13
31 22 18 7 1 5 6 3 2 6 2 7 6 9 11 16 4 9 15 17 10 15 15 18 8 7 12 12 13 10 11 14 16 16 17 20 18 17 17 11 6 11 3 8 13
27 17 12 3 1 1 3 3 6 6 3 4 5 8 11 12 9 10 12 14 13 10 13 16 19 17 14 14 13 13 12 12 15 14 17 18 17 14 6 7 7 10 12 12 14
22 12 9 2 6 3 3 8 6 5 4 4 4 6 8 4 8 8 7 13 17 16 14 13 14 18 15 22 17 17 16 11 14 16 18 21 17 9 5 5 10 12 9 11 12
13 6 4 5 6 3 8 8 6 10 7 6 9 9 6 5 7 6 11 11 9 10 11 10 18 16 10 11 9 14 16 15 18 19 17 18 25 22 21 13 5 7 12 12 16
8 3 3 3 4 3 7 5 2 4 6 6 10 6 6 5 8 5 6 6 15 13 9 9 16 19 16 6 14 13 14 13 8 9 18 14 15 8 8 5 5 3 11 14 17
5 7 3 1 3 9 8 5 1 5 8 5 9 8 7 11 12 9 7 5 9 7 9 9 6 9 17 13 15 11 13 13 15 13 11 16 11 6 3 8 13 16 14 15 19
4 4 2 2 11 4 6 4 3 6 4 5 5 10 7 8 11 13 13 12 1 2 6 7 7 13 19 17 16 17 16 13 9 13 13 13 14 18 18 6 7 11 17 25 22
8 6 3 3 7 5 6 5 3 7 6 3 4 4 5 7 5 8 9 9 9 9 5 5 6 10 12 19 20 15 15 15 16 18 23 18 15 7 10 11 21 21 19 22 21
6 3 4 2 2 7 3 6 5 2 8 6 6 6 8 9 5 7 7 6 10 10 7 7 13 13 12 6 3 7 13 15 15 13 18 20 24 22 22 23 17 21 22 20 22
2 3 3 2 3 7 5 2 6 3 1 4 4 4 2 4 7 13 12 10 13 16 14 5 12 19 20 21 20 22 22 21 22 23 23 25 26 23 22 22 23 28 18 21 22
7 5 2 8 5 6 3 2 4 2 4 3 8 6 4 7 9 15 12 11 11 3 5 4 5 16 19 20 21 23 22 21 23 24 24 25 25 22 26 25 20 21 22 26 27
3 2 4 2 2 5 2 2 2 3 6 3 6 7 11 11 10 14 17 20 13 10 9 4 5 5 15 17 16 16 18 18 15 17 18 18 17 17 19 17 21 20 23 28 33
Wind_Direction
12 6 360 358 353 339 333 322 314 302 295 289 285 284 275 256 239 251 239 227 217 224 204 196 203 208 211 219 224 232 255 243 243 253 253 251 233 252 231 274 260 260 273 288 297
15 14 7 359 358 355 343 335 325 314 306 300 289 286 274 267 260 260 234 222 222 212 193 194 195 197 206 212 206 217 228 242 255 270 265 266 247 247 227 245 259 249 252 261 266
15 15 13 3 355 354 354 343 337 324 312 299 289 280 272 281 295 190 210 221 205 196 180 200 202 197 213 212 208 211 239 241 250 267 263 277 277 261 261 258 255 266 269 274 267
11 12 11 11 358 347 343 345 339 337 320 308 300 282 272 332 318 211 218 198 189 167 196 203 202 203 219 214 220 236 230 243 263 277 238 255 257 259 257 261 268 275 271 268 262
354 358 3 2 3 350 334 330 330 330 336 320 309 295 285 242 261 217 158 169 171 172 191 197 201 209 219 213 224 218 247 232 249 247 255 266 263 264 263 257 255 258 258 256 260
338 341 346 350 354 353 335 315 311 317 322 328 320 301 279 253 142 174 147 152 166 181 197 204 215 218 257 239 216 212 241 249 241 247 240 246 255 256 249 238 250 245 255 259 257
329 331 335 338 340 347 339 308 292 296 303 307 311 291 265 235 179 176 173 170 189 193 204 209 226 202 230 224 235 246 253 237 245 241 245 252 262 252 242 246 249 252 251 255 258
327 329 330 333 333 337 339 312 290 291 295 289 289 264 261 212 202 191 183 194 184 188 204 200 211 216 233 199 212 232 230 249 228 216 229 216 259 263 136 206 229 237 255 251 250
327 327 328 329 328 332 334 311 282 294 288 265 312 224 258 248 201 194 191 183 181 186 187 205 212 226 206 228 226 209 244 227 244 173 241 198 258 210 179 233 255 259 251 248 243
326 325 323 323 323 328 332 305 291 289 262 212 251 250 241 231 197 195 195 200 193 197 207 217 221 225 227 217 233 223 215 239 253 185 204 249 240 253 228 242 248 247 251 254 255
327 326 321 320 319 325 329 346 16 173 219 241 289 258 131 153 175 189 191 199 199 210 222 203 225 223 234 222 258 293 287 296 263 232 243 263 275 271 267 255 253 252 255 254 250
339 331 323 315 314 316 304 240 335 311 292 249 253 249 229 198 185 192 186 199 202 218 216 222 232 253 241 266 261 260 258 258 261 265 259 268 267 268 262 256 255 263 265 260 259
338 332 317 313 308 301 235 262 278 306 270 174 224 231 217 210 221 195 194 205 204 224 226 234 233 200 269 243 240 240 251 263 265 275 260 265 265 253 247 245 250 265 262 264 266
339 331 327 328 300 217 282 284 230 288 272 140 178 163 189 201 227 204 204 211 235 240 232 245 242 241 251 241 232 246 240 243 255 262 262 266 282 274 276 259 217 219 241 245 250
342 336 340 322 220 210 245 279 260 259 256 138 119 148 175 198 68 200 201 213 241 234 253 240 229 242 236 238 238 256 275 273 269 267 277 266 264 266 252 248 234 232 239 248 268
342 337 352 18 10 223 274 265 260 238 259 122 135 154 162 208 202 156 198 231 264 274 254 261 274 277 252 234 240 279 265 261 264 262 259 261 261 268 261 276 266 202 263 310 305
340 329 352 158 92 322 196 208 232 255 109 136 124 194 164 183 179 181 198 210 223 215 246 257 255 252 229 259 242 224 256 266 260 247 256 257 247 258 310 284 223 274 302 301 294
339 340 359 354 279 217 179 228 264 48 23 52 274 234 220 184 215 201 219 212 224 271 286 273 257 229 244 225 250 256 246 258 269 273 287 295 279 270 291 263 275 263 278 278 284
344 349 358 323 147 194 251 234 6 17 15 334 302 257 226 234 246 234 255 251 244 258 287 280 274 283 243 293 279 261 253 296 294 283 278 276 279 276 269 215 236 248 246 260 268
356 325 349 337 179 230 255 286 347 12 324 300 288 312 299 290 215 241 253 265 251 252 281 295 294 278 272 254 254 257 286 278 259 271 266 267 279 270 341 295 264 254 271 282 283
20 265 345 281 218 235 260 34 25 76 330 325 327 308 318 317 301 255 233 251 226 235 224 249 253 273 298 243 258 243 246 248 265 256 265 280 273 308 262 314 304 305 298 296 286
292 260 351 279 244 217 291 35 27 281 262 289 296 309 299 297 295 283 272 250 30 266 272 251 263 262 260 265 269 268 270 270 248 269 251 264 267 276 283 284 288 276 270 268 289
306 291 309 264 273 209 98 261 258 307 315 313 280 307 301 289 292 271 287 302 295 257 216 249 230 266 256 237 232 245 264 268 262 267 259 268 269 241 237 266 247 268 289 300 306
300 267 157 265 327 311 336 260 282 113 292 297 283 293 293 277 282 283 299 356 336 294 43 279 265 258 273 287 170 281 278 277 275 265 269 264 282 281 282 286 299 301 295 301 299
333 72 343 306 107 321 281 318 264 271 336 278 223 291 302 259 260 251 261 292 297 257 273 325 262 261 265 277 283 286 281 273 264 261 262 276 277 282 299 305 299 295 307 305 293
329 339 302 292 298 275 181 159 292 140 272 312 284 169 270 266 266 300 301 286 276 255 285 185 267 274 268 261 265 268 271 269 269 274 275 280 283 285 282 290 302 348 321 304 308
337 306 292 340 230 270 357 352 155 279 264 320 320 290 294 302 308 272 253 270 247 253 266 255 248 259 258 257 262 263 260 265 276 264 268 276 299 326 311 328 331 318 303 304 303